Powrót do katalogu

GEESAT 5-03

AktywnyŁącznośćLEO
NORAD 65552·PAYLOAD·🇨🇳 China

Wystrzelony Sep 8, 2025 z Yellow Sea Launch Area

Loading…

Następne Przeloty (najbliższe 24 godziny)

TLE

ŚwieżeSource: Space-Track

Epoka: Sep 14, 2026, 06:04 UTC

1 65552U 25201C   26257.25313847  .00001188  00000-0  16673-3 0  9992
2 65552  49.9886 346.0975 0011054 243.7912 116.1890 14.84399476 55025

Śledź GEESAT 5-03 w czasie rzeczywistym z AllMySat

Download on the App Store